sat.trackr.live / text

‹ back to catalog

STARLINK-1647

NORAD 47978 · 2021-024B

PAYLOAD ACTIVE UNKNOWN

§ Identity

Operator
Country
US
Launch date
2021-03-24
Launch site
AFETR
Launch vehicle
Mass (kg)
RCS (m²)

Purposes: comms

External: N2YO · Heavens-Above · Gunter

§ Orbital elements

Epoch: 2026-05-24T12:44:57.633504Z

Period
94.01 min
Inclination
53.1622°
Eccentricity
0.0001661
Mean motion
15.31697499 rev/d
Perigee alt
469.6 km
Apogee alt
471.9 km
Semi-major
6,848.9 km
B*
-8.6066e-6
RAAN
339.6457°
Arg perigee
101.9753°
Mean anomaly
258.1435°
Rev number
28,624

§ Raw data

STARLINK-16471 47978U 21024B   26144.53122261 -.00000632  00000+0 -86066-5 0  99962 47978  53.1622 339.6457 0001661 101.9753 258.1435 15.31697499286247

JSON: /api/v1/satellites/47978 · /tle

For live sub-satellite position, see the globe view (requires WebGL).

§ Visibility from observer

Set your observer location to see the next 7 days of passes ≥ 10°. The values pass through the URL so the page stays shareable.

No JS? Fill the form by hand. The geolocation button needs JavaScript.